| time (UTC) | temp F | wind direction | speed knots | gust knots | rain 1hr in | rain 24hr in | rain mn in | humidity % | barometer mb |
| 20260831093004 | 66 | 123 | 0.0 | 0.0 | 0.00 | 0.01 | 0.00 | 77 | 1021.5 |
| 20260831091502 | 65 | 123 | 0.0 | 0.0 | 0.00 | 0.01 | 0.00 | 78 | 1021.3 |
| 20260831084600 | 65 | 123 | 0.0 | 0.0 | 0.00 | 0.01 | 0.00 | 79 | 1021.5 |
| 20260831083105 | 65 | 123 | 0.0 | 0.0 | 0.00 | 0.01 | 0.00 | 79 | 1021.4 |
| 20260831081603 | 65 | 123 | 0.0 | 0.0 | 0.00 | 0.01 | 0.00 | 79 | 1021.5 |
| 20260831080057 | 65 | 123 | 0.0 | 0.0 | 0.00 | 0.01 | 0.00 | 80 | 1021.6 |
| 20260831074557 | 65 | 123 | 0.0 | 0.0 | 0.00 | 0.01 | 0.00 | 80 | 1021.8 |
| 20260831073059 | 65 | 123 | 0.0 | 0.0 | 0.00 | 0.01 | 0.00 | 80 | 1021.8 |
| 20260831071555 | 65 | 123 | 0.0 | 0.0 | 0.00 | 0.01 | 0.00 | 81 | 1021.7 |
| 20260831070057 | 65 | 123 | 0.0 | 0.0 | 0.00 | 0.01 | 0.00 | 81 | 1021.8 |
| 20260831064553 | 65 | 123 | 0.0 | 0.0 | 0.00 | 0.01 | 0.00 | 81 | 1021.8 |
| 20260831063053 | 65 | 123 | 0.0 | 0.0 | 0.00 | 0.01 | 0.00 | 81 | 1021.8 |
| 20260831061552 | 65 | 123 | 0.0 | 0.0 | 0.00 | 0.01 | 0.00 | 81 | 1021.7 |
| 20260831060050 | 65 | 123 | 0.0 | 0.0 | 0.00 | 0.01 | 0.00 | 81 | 1022.0 |
| 20260831054549 | 65 | 123 | 0.0 | 0.0 | 0.00 | 0.01 | 0.00 | 81 | 1022.0 |
| 20260831053048 | 66 | 123 | 0.0 | 0.0 | 0.00 | 0.01 | 0.00 | 80 | 1021.9 |
| 20260831051547 | 66 | 123 | 0.0 | 0.0 | 0.00 | 0.01 | 0.00 | 80 | 1022.1 |
| 20260831050101 | 66 | 123 | 0.0 | 0.0 | 0.00 | 0.01 | 0.00 | 79 | 1022.0 |
| 20260831044600 | 66 | 123 | 0.0 | 0.0 | 0.00 | 0.01 | 0.00 | 79 | 1022.0 |
| 20260831043043 | 66 | 123 | 0.0 | 0.0 | 0.00 | 0.01 | 0.00 | 79 | 1022.0 |
| 20260831041543 | 66 | 123 | 0.0 | 0.0 | 0.00 | 0.01 | 0.00 | 79 | 1022.2 |
| 20260831040041 | 67 | 123 | 0.0 | 0.0 | 0.00 | 0.01 | 0.00 | 79 | 1022.2 |
| 20260831034540 | 67 | 123 | 0.0 | 0.0 | 0.00 | 0.01 | 0.01 | 78 | 1022.2 |
| 20260831033040 | 67 | 123 | 0.0 | 0.9 | 0.00 | 0.01 | 0.01 | 78 | 1022.3 |
| 20260831031545 | 67 | 123 | 0.0 | 0.0 | 0.00 | 0.01 | 0.01 | 78 | 1022.4 |
| 20260831030039 | 67 | 123 | 0.0 | 0.0 | 0.00 | 0.01 | 0.01 | 78 | 1022.5 |
| 20260831024605 | 67 | 123 | 0.0 | 0.0 | 0.00 | 0.01 | 0.01 | 78 | 1022.5 |
| 20260831023038 | 67 | 123 | 0.0 | 0.0 | 0.00 | 0.01 | 0.01 | 79 | 1022.6 |
| 20260831021538 | 67 | 123 | 0.0 | 0.0 | 0.00 | 0.01 | 0.01 | 79 | 1022.4 |
| 20260831020100 | 67 | 123 | 0.0 | 0.0 | 0.00 | 0.01 | 0.01 | 79 | 1022.4 |
| 20260831014551 | 67 | 123 | 0.0 | 0.0 | 0.00 | 0.01 | 0.01 | 79 | 1022.2 |
| 20260831013036 | 67 | 123 | 0.0 | 0.0 | 0.00 | 0.01 | 0.01 | 80 | 1022.0 |
| 20260831011538 | 67 | 123 | 0.0 | 0.0 | 0.00 | 0.01 | 0.01 | 79 | 1021.9 |
| 20260831010044 | 67 | 123 | 0.0 | 0.0 | 0.00 | 0.01 | 0.01 | 79 | 1021.9 |
| 20260831004535 | 67 | 123 | 0.0 | 0.0 | 0.00 | 0.01 | 0.01 | 80 | 1021.9 |
| 20260831003035 | 68 | 123 | 0.0 | 0.0 | 0.00 | 0.01 | 0.01 | 79 | 1021.9 |
| 20260831001540 | 68 | 123 | 0.0 | 0.0 | 0.00 | 0.01 | 0.01 | 79 | 1021.8 |
| 20260831000033 | 68 | 123 | 0.0 | 0.0 | 0.00 | 0.01 | 0.01 | 78 | 1021.8 |
| 20260830234550 | 69 | 123 | 0.0 | 0.0 | 0.00 | 0.01 | 0.01 | 78 | 1021.7 |
| 20260830233034 | 69 | 123 | 0.0 | 0.0 | 0.00 | 0.01 | 0.01 | 78 | 1021.6 |
| 20260830231532 | 69 | 123 | 0.0 | 0.0 | 0.00 | 0.01 | 0.01 | 77 | 1021.5 |
| 20260830230037 | 70 | 123 | 0.0 | 0.0 | 0.00 | 0.01 | 0.01 | 77 | 1021.4 |
| 20260830224537 | 71 | 123 | 0.0 | 0.0 | 0.00 | 0.01 | 0.01 | 77 | 1021.4 |
| 20260830223030 | 71 | 123 | 0.0 | 0.0 | 0.00 | 0.01 | 0.01 | 78 | 1021.4 |
| 20260830221530 | 71 | 123 | 0.0 | 0.0 | 0.00 | 0.01 | 0.01 | 75 | 1021.5 |
| 20260830220032 | 71 | 123 | 0.0 | 1.7 | 0.00 | 0.01 | 0.01 | 76 | 1021.6 |
| 20260830214529 | 70 | 123 | 0.0 | 1.7 | 0.00 | 0.01 | 0.01 | 75 | 1021.4 |
| 20260830213028 | 70 | 123 | 0.9 | 2.6 | 0.00 | 0.01 | 0.01 | 75 | 1021.3 |
| 20260830211527 | 70 | 123 | 0.9 | 1.7 | 0.00 | 0.01 | 0.01 | 75 | 1021.2 |
| 20260830210026 | 71 | 123 | 0.0 | 1.7 | 0.00 | 0.01 | 0.01 | 75 | 1021.4 |
| 20260830204525 | 72 | 123 | 0.0 | 0.0 | 0.00 | 0.01 | 0.01 | 74 | 1021.5 |
| 20260830203024 | 72 | 123 | 0.0 | 0.0 | 0.00 | 0.01 | 0.01 | 73 | 1021.5 |
| 20260830201558 | 72 | 123 | 0.0 | 0.0 | 0.00 | 0.01 | 0.01 | 72 | 1021.5 |
| 20260830200022 | 72 | 123 | 0.0 | 1.7 | 0.00 | 0.01 | 0.01 | 75 | 1021.5 |
| 20260830194522 | 72 | 123 | 0.0 | 0.0 | 0.00 | 0.01 | 0.01 | 73 | 1021.7 |
| 20260830193019 | 73 | 123 | 0.0 | 0.0 | 0.00 | 0.01 | 0.01 | 71 | 1021.9 |
| 20260830191520 | 73 | 123 | 0.0 | 0.9 | 0.00 | 0.01 | 0.01 | 68 | 1022.0 |
| 20260830190019 | 73 | 123 | 0.0 | 2.6 | 0.00 | 0.01 | 0.01 | 71 | 1022.1 |
| 20260830184510 | 71 | 123 | 0.0 | 1.7 | 0.00 | 0.01 | 0.01 | 76 | 1022.4 |
| 20260830183010 | 71 | 123 | 0.0 | 0.0 | 0.00 | 0.01 | 0.01 | 75 | 1022.7 |
| 20260830181512 | 70 | 123 | 0.0 | 0.0 | 0.00 | 0.01 | 0.01 | 76 | 1022.9 |
| 20260830180008 | 70 | 123 | 0.0 | 0.0 | 0.00 | 0.01 | 0.01 | 74 | 1023.2 |
| 20260830174507 | 70 | 123 | 0.0 | 0.0 | 0.00 | 0.01 | 0.01 | 72 | 1023.3 |
| 20260830173010 | 70 | 123 | 0.0 | 0.0 | 0.00 | 0.01 | 0.01 | 70 | 1023.5 |
| 20260830171506 | 71 | 123 | 0.0 | 0.0 | 0.00 | 0.01 | 0.01 | 71 | 1023.4 |
| 20260830170004 | 71 | 123 | 0.0 | 0.9 | 0.00 | 0.01 | 0.01 | 72 | 1023.6 |
| 20260830164502 | 70 | 123 | 0.0 | 1.7 | 0.00 | 0.01 | 0.01 | 71 | 1023.8 |
| 20260830163102 | 70 | 123 | 0.0 | 1.7 | 0.00 | 0.01 | 0.01 | 71 | 1023.8 |
| 20260830161556 | 69 | 123 | 0.0 | 0.9 | 0.00 | 0.01 | 0.01 | 74 | 1023.9 |
| 20260830160052 | 67 | 123 | 0.0 | 0.0 | 0.00 | 0.01 | 0.01 | 75 | 1024.0 |
| 20260830154549 | 67 | 123 | 0.0 | 0.9 | 0.00 | 0.01 | 0.01 | 78 | 1023.9 |
| 20260830153048 | 66 | 123 | 0.0 | 0.0 | 0.00 | 0.01 | 0.01 | 79 | 1024.0 |
| 20260830151557 | 66 | 123 | 0.0 | 0.0 | 0.00 | 0.01 | 0.01 | 81 | 1024.1 |
| 20260830150047 | 66 | 123 | 0.0 | 0.0 | 0.00 | 0.01 | 0.01 | 81 | 1024.1 |
| 20260830144546 | 66 | 123 | 0.0 | 0.0 | 0.00 | 0.01 | 0.01 | 80 | 1024.2 |
| 20260830143045 | 65 | 123 | 0.0 | 0.9 | 0.00 | 0.01 | 0.01 | 80 | 1024.1 |
| 20260830141547 | 65 | 123 | 0.0 | 0.0 | 0.00 | 0.01 | 0.01 | 82 | 1024.1 |
| 20260830140044 | 64 | 123 | 0.0 | 0.0 | 0.00 | 0.01 | 0.01 | 81 | 1024.1 |
| 20260830134544 | 64 | 123 | 0.0 | 0.9 | 0.00 | 0.01 | 0.01 | 82 | 1024.1 |
| 20260830133046 | 64 | 123 | 0.0 | 0.0 | 0.01 | 0.01 | 0.01 | 82 | 1024.1 |
| 20260830131541 | 64 | 123 | 0.0 | 0.0 | 0.01 | 0.01 | 0.01 | 82 | 1024.2 |
| 20260830130044 | 64 | 123 | 0.0 | 0.0 | 0.01 | 0.01 | 0.01 | 82 | 1024.1 |
| 20260830124538 | 63 | 123 | 0.0 | 0.0 | 0.01 | 0.01 | 0.01 | 82 | 1024.1 |
| 20260830123039 | 63 | 123 | 0.0 | 0.0 | 0.00 | 0.00 | 0.00 | 81 | 1024.0 |
| 20260830121537 | 63 | 123 | 0.0 | 0.0 | 0.00 | 0.00 | 0.00 | 81 | 1023.8 |
| 20260830120045 | 63 | 123 | 0.0 | 0.9 | 0.00 | 0.00 | 0.00 | 81 | 1023.7 |
| 20260830114538 | 63 | 123 | 0.0 | 0.0 | 0.00 | 0.00 | 0.00 | 80 | 1023.7 |
| 20260830113033 | 63 | 123 | 0.0 | 0.0 | 0.00 | 0.00 | 0.00 | 80 | 1023.4 |
| 20260830111531 | 64 | 123 | 0.0 | 0.0 | 0.00 | 0.00 | 0.00 | 80 | 1023.1 |
| 20260830110030 | 64 | 123 | 0.0 | 0.0 | 0.00 | 0.00 | 0.00 | 80 | 1022.9 |
| 20260830104529 | 64 | 123 | 0.0 | 0.0 | 0.00 | 0.00 | 0.00 | 79 | 1022.7 |
| 20260830103029 | 64 | 123 | 0.0 | 0.0 | 0.00 | 0.00 | 0.00 | 80 | 1022.6 |
| 20260830101529 | 64 | 123 | 0.0 | 0.0 | 0.00 | 0.00 | 0.00 | 80 | 1022.7 |
| 20260830100034 | 64 | 123 | 0.0 | 0.0 | 0.00 | 0.00 | 0.00 | 80 | 1022.6 |
| 20260830094558 | 64 | 123 | 0.0 | 0.0 | 0.00 | 0.00 | 0.00 | 80 | 1022.4 |